Regional Weather Roundup
Issued by NWS Kansas City/Pleasant Hill, MO

Home | Current Version | Previous Version | Text Only | Print | Product List | Glossary On
Versions: 1 2 3 4 5 6 7 8 9 10 11 12 13 14 15 16 17 18 19 20 21 22 23 24 25 26 27 28 29 30 31 32 33 34 35 36 37 38 39 40 41 42 43 44 45 46 47 48 49 50
000
ASUS43 KEAX 040710
RWREAX

WEATHER ROUNDUP FOR EASTERN KANSAS AND NORTHWEST MISSOURI
NATIONAL WEATHER SERVICE KANSAS CITY/PLEASANT HILL MO
200 AM CDT FRI SEP 04 2015

KSZ040-057-103>105-MOZ028-029-037-043-040800-
...KANSAS CITY METROPOLITAN AREA...

CITY           SKY/WX    TMP DP  RH WIND       PRES   REMARKS
K.C. INTL      MOCLDY    73  67  81 S9        29.93S
K.C. DOWNTOWN  PTCLDY    78  68  71 S6        29.92S
LEES SUMMIT    PTCLDY    77  67  71 S7        29.95S
OLATHE - IXD   PTCLDY    72  68  87 S7        29.95R
OLATHE - OJC   PTCLDY    71  67  87 S5        29.94R
LAWRENCE       PTCLDY    71  68  90 E5        29.92S

$$

MOZ001>008-011>017-020>025-030>033-038>040-044>046-053-054-040800-
...NORTHERN AND CENTRAL MISSOURI...

CITY           SKY/WX    TMP DP  RH WIND       PRES   REMARKS
ST. JOSEPH     PTCLDY    72  68  87 S6        29.91S
MOSBY          MOSUNNY   72  68  88 CALM      29.93S
WARRENSBURG    PTCLDY    72  68  88 SE5       29.94F
WHITEMAN AFB   PTCLDY    72  68  85 S5        29.94S
CLINTON        PTCLDY    75  70  83 CALM      29.96S
SEDALIA        PTCLDY    73  68  84 S6        29.97S
WARSAW         NOT AVBL
CHILLICOTHE      N/A     72  69  90 CALM      29.95S
KIRKSVILLE     CLEAR     70  66  87 S6        29.97R

$$

MOZ041-047>049-056>058-063>065-088>090-097-040800-
...EASTERN AND SOUTHERN MISSOURI...

CITY           SKY/WX    TMP DP  RH WIND       PRES   REMARKS
ST. LOUIS INTL CLEAR     80  69  69 CALM      29.97S
SPIRIT OF STL  CLEAR     70  70 100 CALM      29.95S
COLUMBIA       CLEAR     72  69  90 S6        29.97S
JEFFERSON CITY CLEAR     71  69  93 SE3       29.96R
ROLLA          CLEAR     72  67  84 S6        29.98S
OSAGE BEACH    CLEAR     72  66  83 CALM      29.98S
SPRINGFIELD    CLEAR     72  67  84 SE7       29.98S
BRANSON        CLEAR     72  66  83 CALM      30.00S
JOPLIN         CLEAR     75  67  76 SE5       29.96S
WEST PLAINS    CLEAR     69  66  90 CALM      30.02S

$$

IAZ060-094-KSZ022-034>040-054-083-096-NEZ052-066-093-040800-
...KANSAS...SOUTHEAST NEBRASKA AND IOWA...

CITY           SKY/WX    TMP DP  RH WIND       PRES   REMARKS
TOPEKA         PTCLDY    75  68  78 S8        29.91R
MANHATTAN      MOCLDY    79  67  66 S12       29.87S
EMPORIA        MOCLDY    73  68  84 S12       29.92R
CHANUTE        MOCLDY    73  68  84 SE7       29.94R
WICHITA        CLOUDY    76  64  66 S9        29.90R
OMAHA          MOCLDY    77  68  73 S12       29.87R
LINCOLN        MOCLDY    78  67  68 S13       29.86R
FALLS CITY     MOCLDY    75  68  78 S8        29.89R
LAMONI         PTCLDY    73  68  84 S6        29.94R
DES MOINES     PTCLDY    76  68  76 S8        29.93R

$$




USA.gov is the U.S. government's official web portal to all federal, state and local government web resources and services.